Flag for American Samoa Weather past 2 weeks in Pago Pago, American Samoa

Now
88 °F

Scattered clouds.


Feels Like: 100 °F
Forecast: 76 / 87 °F
Wind: 8 mph from Northwest

Location: Pago Pago / Int. Airp.

Current Time: Mar 27, 2015 at 11:24:43 AM

Latest Report: Mar 27, 2015 at 10:52 AM


Visibility: 12 mi

Pressure: 29.82 "Hg

Humidity: 70%

Dew point: 77 °F

Location of Pago PagoLocation

Historic Weather in Pago Pago — Graph

°F

Pago Pago temperature yesterday

Maximum temperature yesterday: 83 °F (at 10:52 AM)
Minimum temperature yesterday: 75 °F (at 11:52 PM)
Average temperature yesterday: 79 °F

Past Weeks' High & Low Weather Summary

 TemperatureHumidityPressure
High91 °F (Mar 12, 1:52 PM)96% (Mar 27, 12:56 AM)29.91 "Hg (Mar 27, 12:56 AM)
Low73 °F (Mar 27, 1:50 AM)65% (Mar 12, 2:50 PM)29.64 "Hg (Mar 21, 3:52 PM)
Average83 °F83%29.78 "Hg
* Reported Mar 12 9:53 AM — Mar 27 9:51 AM, Pago Pago, Weather by CustomWeather, © 2015

Note: Actual official high and low records may vary slightly from our data, if they occured in-between our weather recording intervals... More about our weather records

Advertising

Pago Pago weather history for previous 24 hours

 ConditionsComfort  
Time TempWeatherWind HumidityBarometerVisibility
9:51 AM
Fri, Mar 27
86 °FScattered clouds.10 mph74%29.82 "Hg12 mi
8:50 AM85 °FScattered clouds.9 mph71%29.83 "Hg12 mi
7:51 AM81 °FBroken clouds.6 mph82%29.82 "Hg12 mi
6:55 AM78 °FBroken clouds.No wind90%29.80 "Hg11 mi
5:57 AM77 °FPartly cloudy.3 mph94%29.80 "Hg11 mi
3:50 AM75 °FOvercast.No wind93%29.77 "Hg10 mi
2:56 AM75 °FOvercast.No wind93%29.77 "Hg10 mi
1:50 AM73 °FSprinkles. Overcast.No wind93%29.80 "Hg10 mi
12:56 AM76 °FOvercast.10 mph96%29.83 "Hg10 mi
11:52 PM
Thu, Mar 26
75 °FSprinkles. Overcast.No wind95%29.83 "Hg10 mi
10:52 PM76 °FLight rain. Overcast.12 mph93%29.83 "Hg10 mi
9:55 PM76 °FLight rain. Overcast.2 mph95%29.83 "Hg10 mi
8:52 PM77 °FLight rain. Overcast.No wind94%29.80 "Hg10 mi
7:51 PM77 °FLight rain. Overcast.5 mph95%29.80 "Hg10 mi
6:54 PM77 °FLight rain. Overcast.No wind95%29.78 "Hg10 mi
4:55 PM77 °FSprinkles. Cloudy.3 mph92%29.77 "Hg4 mi
3:54 PM78 °FSprinkles. Cloudy.6 mph91%29.75 "Hg7 mi
2:50 PM80 °FSprinkles. Cloudy.7 mph88%29.75 "Hg10 mi
1:51 PM82 °FSprinkles. Cloudy.7 mph84%29.75 "Hg10 mi
12:51 PM82 °FSprinkles. Cloudy.6 mph85%29.78 "Hg10 mi
11:53 AM81 °FMostly cloudy.7 mph82%29.81 "Hg12 mi
Weather by CustomWeather, © 2015

See weather overviewHow to use our weather pages